Weather observations for the past three days for
Olympia, Olympia Airport
Imperial (Metric)
Date Time (pdt) Wind (mph) Vis. (mi.) Weather Sky Cond. Temperature (ºF) Relative Humidity Wind Chill (°F) Heat Index (°F) Pressure Precipitation (in)
Air Dwpt 6 hour altimeter (in) sea level (mb) 1 hr 3 hr 6 hr
Max. Min.
17 18:54 SW 8 10.00 Fair CLR 78.1 59 52% 79 29.99 1015.4
17 17:54 S 9 10.00 Fair CLR 82 59 46% 82 29.99 1015.3
17 16:54 S 8 10.00 Fair CLR 82.9 60.1 84 72 46% 83 29.98 1015.2
17 15:54 SW 8 10.00 Fair CLR 82 60.1 47% 82 29.99 1015.5
17 14:54 S 7 10.00 Fair CLR 82 60.1 47% 82 30 1015.6
17 13:54 Vrbl 3 10.00 Fair CLR 81 60.1 49% 82 29.99 1015.5
17 12:54 Vrbl 3 10.00 Fair CLR 78.1 60.1 54% 79 30 1015.6
17 11:54 Vrbl 5 10.00 Fair CLR 75.9 59 56% 78 29.99 1015.5
17 10:54 Calm 10.00 Fair CLR 72 57.9 72 60.1 61% 29.99 1015.3
17 09:54 SW 8 10.00 Fair CLR 64.9 55.9 73% 30 1015.8
17 08:54 SW 8 10.00 Fair CLR 64.9 55.9 73% 30.01 1015.9
17 07:54 S 7 10.00 A Few Clouds FEW100 63 55.9 78% 29.98 1015.0
17 06:54 SE 5 10.00 Fair CLR 62.1 55 78% 29.97 1014.9
17 05:54 N 3 10.00 Fair CLR 60.1 54 80% 29.96 1014.5
17 04:54 SW 8 10.00 Fair CLR 62.1 55 72 62.1 78% 29.97 1014.9
17 03:54 S 3 10.00 Fair CLR 64.9 57.9 78% 29.95 1014.2
17 02:54 W 3 10.00 Fair CLR 66 57.9 75% 29.92 1013.0
17 01:54 Calm 10.00 Fair CLR 66 57.9 75% 29.93 1013.3
17 00:54 S 3 10.00 Fair CLR 66.9 57.9 73% 29.92 1012.9
16 23:54 Calm 10.00 Fair CLR 64 55 73% 29.9 1012.5
16 22:54 Calm 10.00 Fair CLR 70 55.9 91 70 61% 29.9 1012.4
16 21:54 N 3 10.00 Fair CLR 75 54 48% 78 29.9 1012.4
16 20:54 N 7 10.00 Fair CLR 79 55 44% 80 29.89 1011.9
16 19:54 NE 7 10.00 Fair CLR 87.1 55 34% 85 29.89 1012.0
16 18:54 NE 8 10.00 Fair CLR 90 55 31% 88 29.89 1012.0
16 17:54 NE 6 10.00 Fair CLR 90 54 29% 88 29.9 1012.4
16 16:54 NE 9 10.00 Fair CLR 91 55 91 79 30% 89 29.92 1012.9
16 15:54 N 12 G 16 10.00 Fair CLR 91 55 30% 89 29.93 1013.4
16 14:54 N 9 10.00 Fair CLR 89.1 55 31% 87 29.95 1014.1
16 13:54 Vrbl 3 G 16 10.00 Fair CLR 86 54 33% 84 29.97 1014.7
16 12:54 NE 10 G 18 10.00 Fair CLR 84.9 54 35% 83 29.99 1015.4
16 11:54 N 7 10.00 Fair CLR 82 55.9 41% 82 30 1015.8
16 10:54 N 12 10.00 Fair CLR 79 55.9 79 52 45% 80 30.01 1016.0
16 09:54 Calm 10.00 Fair CLR 73 59 62% 30.02 1016.6
16 08:54 Vrbl 5 10.00 Fair CLR 68 57.9 70% 30.03 1016.7
16 07:54 Calm 10.00 Fair CLR 63 57 81% 30.03 1016.8
16 06:54 Calm 10.00 Fair CLR 55.9 54 93% 30.03 1016.8
16 05:54 Calm 3.00 Fog/Mist CLR 53.1 52 96% 30.03 1016.9
16 04:54 Calm 10.00 Fair CLR 52 51.1 66.9 52 97% 30.02 1016.6
16 03:54 Calm 10.00 Fair CLR 55 53.1 93% 30.02 1016.5
16 02:54 Calm 10.00 Fair CLR 55.9 54 93% 30.02 1016.5
16 01:54 Calm 10.00 Fair CLR 57.9 55 90% 30.02 1016.6
15 23:54 W 3 10.00 Fair CLR 62.1 57.9 86% 30.03 1016.6
15 22:54 N 5 10.00 Fair CLR 66.9 59 82.9 66.9 76% 30.03 1016.7
15 21:54 Calm 10.00 Fair CLR 69.1 57.9 68% 30.03 1016.9
15 20:54 NW 3 10.00 Fair CLR 73.9 57.9 57% 30.03 1016.7
15 19:54 NE 7 10.00 Fair CLR 79 57 47% 80 30.03 1016.7
15 18:54 N 7 10.00 Fair CLR 81 57.9 45% 81 30.04 1017.0
15 17:54 NE 7 10.00 Fair CLR 81 59 47% 81 30.05 1017.4
15 16:54 Vrbl 3 10.00 Fair CLR 81 57.9 82 61 45% 81 30.07 1018.0
15 15:54 Vrbl 3 10.00 Fair CLR 80.1 57 45% 80 30.08 1018.6
15 14:54 NW 5 10.00 Fair CLR 78.1 55.9 47% 79 30.1 1019.2
15 13:54 Calm 10.00 Fair CLR 73 55.9 55% 30.12 1019.7
15 12:54 Vrbl 3 10.00 Fair CLR 69.1 55 61% 30.13 1020.4
15 11:54 Calm 10.00 Mostly Cloudy BKN017 66 54 65% 30.15 1021.0
15 10:54 Calm 10.00 Overcast OVC014 61 53.1 61 55.9 75% 30.16 1021.2
15 09:54 S 7 10.00 Overcast OVC012 60.1 52 75% 30.16 1021.2
15 08:54 Vrbl 5 10.00 Overcast OVC011 57.9 52 81% 30.16 1021.2
15 07:54 S 8 10.00 Overcast OVC008 57 53.1 87% 30.15 1020.9
15 06:54 W 5 10.00 Overcast OVC009 57 53.1 87% 30.14 1020.5
15 05:54 S 6 10.00 Overcast OVC010 57 53.1 87% 30.13 1020.1
15 04:54 Vrbl 3 10.00 Overcast OVC010 57 53.1 57.9 54 87% 30.12 1019.8
15 03:54 Calm 10.00 Overcast OVC010 55 53.1 93% 30.11 1019.6
15 02:54 SW 5 10.00 Fair CLR 55 52 90% 30.1 1019.1
15 01:54 S 3 10.00 Fair CLR 54 52 93% 30.1 1019.1
15 00:54 S 6 10.00 Fair CLR 55 52 90% 30.1 1019.0
14 23:54 S 8 10.00 Fair CLR 55.9 53.1 90% 30.09 1018.8
14 22:54 S 8 10.00 Fair CLR 57.9 53.1 81 57.9 84% 30.07 1018.2
14 21:54 SW 7 10.00 Fair CLR 60.1 53.1 78% 30.06 1017.7
14 20:54 SW 9 10.00 Fair CLR 64.9 53.1 66% 30.03 1016.8
14 19:54 SW 9 10.00 Fair CLR 71.1 52 51% 30.02 1016.6
Date Time (pdt) Wind (mph) Vis. (mi.) Weather Sky Cond. Air Dwpt Max. Min. Relative Humidity Wind Chill (°F) Heat Index (°F) altimeter (in) sea level (mb) 1 hr 3 hr 6 hr
6 hour
Temperature (ºF) Pressure Precipitation (in)